C/2011 L3 ( McNaught )

Japanese version
Home page
Updated on January 7, 2012

---------------------------------------------------------------------

* Profile

Discovery Date June 3, 2011
Magnitude 16.3 mag
Discoverer Robert H. McNaught (Siding Spring)

* Pictures

* Orbital Elements

Epoch 2011 Aug. 27.0 TT = JDT 2455800.5
T 2011 Aug. 10.50249 TT                                 MPC
q   1.9238402            (2000.0)            P               Q
z  -0.0000413      Peri.   27.72809     +0.56049624     -0.24965065
 +/-0.0000068      Node   307.75516     -0.81377585     +0.01088922
e   1.0000794      Incl.   87.11431     +0.15366469     +0.96827474
From 666 observations 2011 June 3-Nov. 24, mean residual 0".6.

* Finding Charts

* Magnitudes Graph

        m1 = 5.0 + 5 log d + 30.0 log r(t + 15)

---------------------------------------------------------------------

The orbital elements are published on M.P.E.C. 2011-W48.
The charts are made with StellaNavigator Ver.8 (AstroArts).
The magnitudes graphs are made with Comet for Windows.

---------------------------------------------------------------------

Copyright(C) Seiichi Yoshida (comet@aerith.net). All rights reserved.